Location: De Forest
(43.2480°N, 89.3440°W)
Time: 03:52:02
(UTC-05:00)

Tiangong 2 - Pass Details

Date: 27 May 2019
Orbit: 376 x 388 km, 42.8° (Epoch: 26 June)

Event Time Altitude Azimuth Distance (km) Brightness Sun altitude
Rises 21:30:49 0° 277° (W) 2,238 5.9 -10.2°
Reaches altitude 10° 21:32:53 10° 274° (W) 1,384 4.7 -10.5°
Maximum altitude 21:35:58 61° 193° (SSW) 429 1.1 -10.9°
Enters shadow 21:38:07 18° 115° (ESE) 1,012 2.6 -11.2°
